W5CGC Weather Reports


Display with metric or nautical units.
time (UTC)temp
F
wind
direction
speed
MPH
gust
MPH
rain 1hr
in
rain 24hr
in
rain mn
in
humidity
%
barometer
mb
20210118040154 35 319 0.0 0.0 0.00 0.00 0.00 57 1019.0
20210118034647 36 319 0.0 0.0 0.00 0.00 0.00 55 1019.0
20210118033233 36 319 0.0 0.0 0.00 0.00 0.00 54 1019.0
20210118031627 37 319 0.0 0.0 0.00 0.00 0.00 50 1019.0
20210118030149 37 319 0.0 0.0 0.00 0.00 0.00 47 1019.2
20210118024636 38 319 0.0 0.0 0.00 0.00 0.00 46 1019.1
20210118023157 39 319 0.0 0.0 0.00 0.00 0.00 44 1019.1
20210118021710 40 319 0.0 0.0 0.00 0.00 0.00 40 1018.9
20210118020249 42 319 0.0 0.0 0.00 0.00 0.00 37 1019.0
20210118014700 43 319 0.0 0.0 0.00 0.00 0.00 37 1019.1
20210118013137 45 319 0.0 0.0 0.00 0.00 0.00 31 1019.1
20210118011703 47 319 0.0 0.0 0.00 0.00 0.00 27 1019.0
20210118010119 47 319 0.0 0.0 0.00 0.00 0.00 28 1018.8
20210118004639 50 319 0.0 0.0 0.00 0.00 0.00 25 1018.8
20210118003128 49 335 0.0 1.0 0.00 0.00 0.00 26 1018.7
20210118001652 50 247 0.0 0.0 0.00 0.00 0.00 27 1018.6
20210118000247 52 247 0.0 0.0 0.00 0.00 0.00 25 1018.5
20210117234807 54 247 0.0 1.0 0.00 0.00 0.00 23 1018.3
20210117233203 56 352 0.0 2.0 0.00 0.00 0.00 22 1018.3
20210117231709 58 321 0.0 7.0 0.00 0.00 0.00 20 1018.3
20210117230205 58 247 1.0 3.0 0.00 0.00 0.00 19 1018.2
20210117224651 59 298 2.0 5.0 0.00 0.00 0.00 18 1018.2
20210117223128 59 302 1.0 6.0 0.00 0.00 0.00 18 1018.2
20210117221618 60 251 1.0 6.0 0.00 0.00 0.00 18 1018.2
20210117220138 60 328 1.0 5.0 0.00 0.00 0.00 17 1018.3
20210117214558 60 299 1.0 5.0 0.00 0.00 0.00 17 1018.2
20210117213058 60 61 0.0 5.0 0.00 0.00 0.00 17 1018.1
20210117211636 60 82 1.0 7.0 0.00 0.00 0.00 16 1018.3
20210117210137 60 295 2.0 5.0 0.00 0.00 0.00 17 1018.3
20210117204603 60 32 1.0 4.0 0.00 0.00 0.00 20 1018.4
20210117203137 60 299 1.0 5.0 0.00 0.00 0.00 18 1018.6
20210117201546 60 289 2.0 11.0 0.00 0.00 0.00 19 1018.7
20210117200103 59 311 2.0 7.0 0.00 0.00 0.00 18 1018.8
20210117194556 59 20 1.0 6.0 0.00 0.00 0.00 19 1019.1
20210117193041 59 226 2.0 7.0 0.00 0.00 0.00 20 1019.5
20210117191543 58 211 2.0 5.0 0.00 0.00 0.00 19 1019.9
20210117190046 58 307 1.0 5.0 0.00 0.00 0.00 21 1020.0
20210117183033 57 39 1.0 6.0 0.00 0.00 0.00 21 1020.6
20210117181537 57 285 1.0 7.0 0.00 0.00 0.00 22 1020.8
20210117180039 57 317 0.0 6.0 0.00 0.00 0.00 24 1021.1
20210117174600 55 46 1.0 3.0 0.00 0.00 0.00 25 1021.3
20210117173017 55 81 0.0 3.0 0.00 0.00 0.00 28 1021.4
20210117171524 53 281 0.0 2.0 0.00 0.00 0.00 30 1021.7
20210117170041 52 212 1.0 2.0 0.00 0.00 0.00 31 1021.7
20210117164511 51 334 1.0 3.0 0.00 0.00 0.00 36 1021.9
20210117163136 49 259 1.0 3.0 0.00 0.00 0.00 38 1021.9
20210117161635 48 29 1.0 4.0 0.00 0.00 0.00 40 1021.8
20210117160212 47 258 1.0 3.0 0.00 0.00 0.00 42 1021.7
20210117154604 45 250 0.0 3.0 0.00 0.00 0.00 44 1021.6
20210117153220 44 283 1.0 4.0 0.00 0.00 0.00 45 1021.5
20210117151647 43 236 0.0 2.0 0.00 0.00 0.00 45 1021.4
20210117150122 43 262 1.0 2.0 0.00 0.00 0.00 46 1021.1
20210117144654 41 281 0.0 3.0 0.00 0.00 0.00 48 1020.9
20210117143339 39 286 0.0 2.0 0.00 0.00 0.00 49 1020.8
20210117141604 38 248 0.0 2.0 0.00 0.00 0.00 51 1020.7
20210117140103 37 283 0.0 0.0 0.00 0.00 0.00 51 1020.8
20210117134550 37 284 0.0 0.0 0.00 0.00 0.00 50 1020.6
20210117133034 37 284 0.0 0.0 0.00 0.00 0.00 49 1020.3
20210117131529 38 284 0.0 1.0 0.00 0.00 0.00 47 1020.4
20210117130057 39 284 0.0 1.0 0.00 0.00 0.00 46 1020.1
20210117124614 40 276 0.0 1.0 0.00 0.00 0.00 43 1019.8
20210117123049 41 286 0.0 2.0 0.00 0.00 0.00 43 1019.4
20210117121550 41 271 0.0 3.0 0.00 0.00 0.00 42 1019.0
20210117120101 42 273 0.0 1.0 0.00 0.00 0.00 41 1018.7
20210117114524 42 280 0.0 2.0 0.00 0.00 0.00 40 1018.4
20210117113020 42 266 0.0 3.0 0.00 0.00 0.00 39 1018.3
20210117111623 42 275 1.0 2.0 0.00 0.00 0.00 39 1018.0
20210117110031 39 276 0.0 2.0 0.00 0.00 0.00 42 1017.8
20210117104614 34 136 0.0 0.0 0.00 0.00 0.00 50 1017.6
20210117103146 35 223 0.0 0.0 0.00 0.00 0.00 48 1017.5
20210117101724 35 223 0.0 0.0 0.00 0.00 0.00 49 1017.5
20210117100128 35 223 0.0 0.0 0.00 0.00 0.00 54 1017.5
20210117094731 35 223 0.0 0.0 0.00 0.00 0.00 53 1017.4
20210117093156 35 223 0.0 0.0 0.00 0.00 0.00 50 1017.4
20210117091636 35 223 0.0 0.0 0.00 0.00 0.00 49 1017.3
20210117090336 35 223 0.0 1.0 0.00 0.00 0.00 54 1017.4
20210117084847 36 223 0.0 0.0 0.00 0.00 0.00 56 1017.4
20210117083153 36 223 0.0 1.0 0.00 0.00 0.00 56 1017.4
20210117081635 35 223 0.0 0.0 0.00 0.00 0.00 50 1017.3
20210117080326 35 223 0.0 0.0 0.00 0.00 0.00 49 1017.3
20210117074625 35 223 0.0 0.0 0.00 0.00 0.00 46 1017.3
20210117073129 36 223 0.0 0.0 0.00 0.00 0.00 47 1017.3
20210117071616 36 223 0.0 1.0 0.00 0.00 0.00 49 1017.3
20210117070205 36 223 0.0 0.0 0.00 0.00 0.00 48 1017.3
20210117064628 37 223 0.0 0.0 0.00 0.00 0.00 50 1017.2
20210117063233 37 223 0.0 1.0 0.00 0.00 0.00 50 1017.3
20210117061609 37 212 0.0 0.0 0.00 0.00 0.00 48 1017.3
20210117060149 36 212 0.0 0.0 0.00 0.00 0.00 46 1017.3
20210117054612 37 212 0.0 1.0 0.00 0.00 0.00 46 1017.2
20210117053032 38 213 0.0 0.0 0.00 0.00 0.00 43 1017.3
20210117051619 38 212 0.0 0.0 0.00 0.00 0.00 43 1017.3
20210117050038 40 213 0.0 0.0 0.00 0.00 0.00 44 1017.4
20210117044523 41 212 0.0 0.0 0.00 0.00 0.00 40 1017.3
20210117043027 42 212 0.0 1.0 0.00 0.00 0.00 40 1017.3
20210117041524 43 212 0.0 0.0 0.00 0.00 0.00 37 1017.4